IBE237 MDPC-MUHA

Flight info

Callsign IBE237
Flight time N/A
Altitude 38000
Route PIXAR2W PIXAR UM348 TUMAR M348 ALBBE Y353 KNSLY M348 MEDKO UM348 UVA KAVUL5B
Aircraft A21N/M-SDE2E3FGHIRWXY/LB1

Departure

Time N/A
Airport Punta Cana International Airport (MDPC)

Arrival

Time 2026-05-01 07:41
Airport José Martí International Airport (MUHA)
Time Latitude Longitude Altitude Speed Heading
2026-05-01 07:23 22.68917 -81.54342 17629 ft 327 kts 270°
2026-05-01 07:23 22.68802 -81.59265 16888 ft 327 kts 270°
2026-05-01 07:24 22.68743 -81.61735 16521 ft 327 kts 270°
2026-05-01 07:24 22.68685 -81.64162 16175 ft 326 kts 270°
2026-05-01 07:24 22.68625 -81.66612 15833 ft 325 kts 270°
2026-05-01 07:24 22.68565 -81.69061 15518 ft 323 kts 270°
2026-05-01 07:25 22.68507 -81.71495 15189 ft 323 kts 270°
2026-05-01 07:25 22.68447 -81.73917 14851 ft 322 kts 270°
2026-05-01 07:25 22.68387 -81.76348 14497 ft 323 kts 270°
2026-05-01 07:25 22.68323 -81.78748 14161 ft 323 kts 270°
2026-05-01 07:26 22.68263 -81.81178 13831 ft 322 kts 270°
2026-05-01 07:26 22.68202 -81.83610 13468 ft 322 kts 270°
2026-05-01 07:26 22.68139 -81.86034 13113 ft 322 kts 269°
2026-05-01 07:26 22.68072 -81.88464 12767 ft 321 kts 269°
2026-05-01 07:27 22.68009 -81.90870 12430 ft 320 kts 269°
2026-05-01 07:27 22.67946 -81.93284 12081 ft 320 kts 269°
2026-05-01 07:27 22.67881 -81.95656 11745 ft 319 kts 269°
2026-05-01 07:27 22.67816 -81.98055 11407 ft 319 kts 269°
2026-05-01 07:28 22.67756 -82.00466 11067 ft 319 kts 269°
2026-05-01 07:28 22.67693 -82.02862 10734 ft 319 kts 268°
2026-05-01 07:28 22.67627 -82.05262 10399 ft 319 kts 268°
2026-05-01 07:28 22.67562 -82.07662 10064 ft 319 kts 268°
2026-05-01 07:29 22.67496 -82.10059 9750 ft 315 kts 268°
2026-05-01 07:29 22.67434 -82.12398 9543 ft 305 kts 268°
2026-05-01 07:29 22.67368 -82.14673 9276 ft 299 kts 268°
2026-05-01 07:29 22.67306 -82.16877 8921 ft 296 kts 268°
2026-05-01 07:30 22.67248 -82.19094 8536 ft 294 kts 268°
2026-05-01 07:30 22.67193 -82.21306 8156 ft 292 kts 269°
2026-05-01 07:30 22.67469 -82.23464 7614 ft 290 kts 289°
2026-05-01 07:30 22.68249 -82.25468 7108 ft 287 kts 295°
2026-05-01 07:31 22.69097 -82.27386 6626 ft 283 kts 296°
2026-05-01 07:31 22.71605 -82.33110 5472 ft 278 kts 295°
2026-05-01 07:32 22.73234 -82.36888 4761 ft 275 kts 295°
2026-05-01 07:32 22.74043 -82.38763 4392 ft 274 kts 294°
2026-05-01 07:33 22.75645 -82.42496 4036 ft 275 kts 295°
2026-05-01 07:33 22.76450 -82.44374 3894 ft 273 kts 295°
2026-05-01 07:33 22.78044 -82.48110 3490 ft 272 kts 295°
2026-05-01 07:34 22.78837 -82.49971 3204 ft 272 kts 295°
2026-05-01 07:34 22.81220 -82.52970 2717 ft 258 kts 325°
2026-05-01 07:34 22.82668 -82.54063 2598 ft 248 kts 326°
2026-05-01 07:35 22.84052 -82.55108 2475 ft 237 kts 326°
2026-05-01 07:35 22.85384 -82.56082 2346 ft 225 kts 332°
2026-05-01 07:35 22.86800 -82.56661 2195 ft 212 kts 352°
2026-05-01 07:35 22.88176 -82.56528 2068 ft 189 kts 25°
2026-05-01 07:36 22.88855 -82.56010 2003 ft 174 kts 46°
2026-05-01 07:36 22.89774 -82.54733 1941 ft 155 kts 57°
2026-05-01 07:36 22.90398 -82.53778 1953 ft 155 kts 56°
2026-05-01 07:36 22.90820 -82.53135 1956 ft 154 kts 56°
2026-05-01 07:37 22.91963 -82.51407 1943 ft 136 kts 56°
2026-05-01 07:37 22.92515 -82.50573 1922 ft 137 kts 57°
2026-05-01 07:37 22.93070 -82.49735 1829 ft 136 kts 56°
2026-05-01 07:38 22.93619 -82.48905 1657 ft 136 kts 56°
2026-05-01 07:38 22.94167 -82.48077 1472 ft 135 kts 56°
2026-05-01 07:38 22.95255 -82.46431 1119 ft 133 kts 56°
2026-05-01 07:39 22.95787 -82.45627 956 ft 132 kts 55°
2026-05-01 07:39 22.96323 -82.44816 779 ft 132 kts 55°
2026-05-01 07:39 22.97401 -82.43196 413 ft 131 kts 54°
2026-05-01 07:40 22.97928 -82.42388 229 ft 131 kts 52°
2026-05-01 07:40 22.98447 -82.41624 204 ft 113 kts 50°
2026-05-01 07:40 22.98787 -82.41121 212 ft 65 kts 54°
2026-05-01 07:40 22.99034 -82.40749 206 ft 56 kts 56°
2026-05-01 07:41 22.99238 -82.40432 206 ft 42 kts 59°
2026-05-01 07:41 22.99364 -82.40234 208 ft 22 kts 53°
2026-05-01 07:41 22.99551 -82.40173 207 ft 3 kts
2026-05-01 07:42 22.99584 -82.40169 209 ft 6 kts
2026-05-01 07:42 22.99631 -82.40150 209 ft 9 kts 32°
2026-05-01 07:42 22.99686 -82.40108 212 ft 9 kts 34°
2026-05-01 07:42 22.99665 -82.40105 208 ft 12 kts 234°
2026-05-01 07:43 22.99609 -82.40181 211 ft 14 kts 229°
2026-05-01 07:43 22.99545 -82.40271 207 ft 16 kts 236°
2026-05-01 07:43 22.99518 -82.40434 213 ft 12 kts 324°
2026-05-01 07:44 22.99554 -82.40456 205 ft 0 kts 328°
2026-05-01 07:45 22.99556 -82.40457 205 ft 2 kts 328°
2026-05-01 07:46 22.99581 -82.40477 208 ft 7 kts 309°
2026-05-01 07:46 22.99573 -82.40544 206 ft 12 kts 236°
2026-05-01 07:46 22.99508 -82.40715 211 ft 12 kts 325°
2026-05-01 07:47 22.99588 -82.40773 214 ft 10 kts 325°
2026-05-01 07:47 22.99622 -82.40798 209 ft 5 kts 328°
2026-05-01 07:47 22.99654 -82.40781 216 ft 5 kts 48°
2026-05-01 07:47 22.99667 -82.40763 208 ft 0 kts 51°